Weather History for Gillette, WY

Change the Weather History Date:

Monday, May 12, 2014

  Actual Average Record
Temperature  
Mean Temperature 39 °F 52 °F  
Max Temperature 48 °F 65 °F 90 °F (1960)
Min Temperature 29 °F 39 °F 15 °F (1953)
Degree Days  
Heating Degree Days 26 13  
Month to date heating degree days 229 182  
Since 1 July heating degree days 7479 7198  
Cooling Degree Days 0 0  
Month to date cooling degree days 0 0  
Year to date cooling degree days 0 0  
Moisture  
Dew Point 23 °F    
Average Humidity 57    
Maximum Humidity 78    
Minimum Humidity 36    
Precipitation  
Precipitation 0.00 in 0.08 in 1.41 in (1989)
Month to date precipitation 0.66 0.86  
Year to date precipitation 3.83 4.07  
Sea Level Pressure  
Sea Level Pressure 30.34 in    
Wind  
Wind Speed 16 mph (NNW)    
Max Wind Speed 28 mph    
Max Gust Speed 35 mph    
Visibility 10 miles    
Events      
T = Trace of Precipitation, MM = Missing Value Source: NWS Daily Summary

Daily Weather History Graph

Daily Weather History Graph

Search for Another Location

Airport:

Trip Planner

Search our weather history database for the weather conditions in past years. The results will help you decide how hot, cold, wet, or windy it might be!

Date:

Astronomy

May. 12, 2014 Rise Set
Actual Time 5:38 AM MDT 8:19 PM MDT
Civil Twilight 5:05 AM MDT 8:52 PM MDT
Nautical Twilight 4:23 AM MDT 9:34 PM MDT
Astronomical Twilight 3:35 AM MDT 10:23 PM MDT
Moon 6:15 PM MDT (5/12) 4:25 AM MDT (5/12)
Length of Visible Light 15h 47m
Length of Day
14h 40m
Waxing Gibbous, 95% of the Moon is Illuminated
May 12
Waxing Gibbous
May 14
Full
May 21
Last Quarter
May 28
New
Jun 5
First Quarter

Hourly Weather History & Observations

Time (MDT) Temp. Windchill Dew Point Humidity Pressure Visibility Wind Dir Wind Speed Gust Speed Precip Events Conditions
12:53 AM 37.0 °F 28.1 °F 25.0 °F 62% 30.27 in 10.0 mi NNW 15.0 mph - N/A   Overcast
1:53 AM 36.0 °F 26.7 °F 24.1 °F 62% 30.26 in 10.0 mi NNW 15.0 mph 21.9 mph N/A   Clear
2:53 AM 36.0 °F 27.5 °F 23.0 °F 59% 30.27 in 10.0 mi North 12.7 mph - N/A   Partly Cloudy
3:53 AM 34.0 °F 26.0 °F 24.1 °F 67% 30.29 in 10.0 mi NNW 10.4 mph - N/A   Overcast
4:53 AM 32.0 °F 24.2 °F 24.1 °F 73% 30.31 in 10.0 mi NNW 9.2 mph - N/A   Overcast
5:53 AM 34.0 °F 24.6 °F 23.0 °F 64% 30.30 in 10.0 mi NNW 13.8 mph - N/A   Clear
6:53 AM 34.0 °F 24.2 °F 24.1 °F 67% 30.32 in 10.0 mi NNW 15.0 mph - N/A   Scattered Clouds
7:53 AM 37.4 °F 28.2 °F 24.8 °F 60% 30.28 in 10.0 mi NNW 16.1 mph - N/A   Clear
8:53 AM 39.0 °F 28.3 °F 24.1 °F 55% 30.35 in 10.0 mi North 24.2 mph 31.1 mph N/A   Clear
9:53 AM 42.1 °F 32.8 °F 23.0 °F 47% 30.34 in 10.0 mi North 21.9 mph 29.9 mph N/A   Partly Cloudy
10:53 AM 42.1 °F 33.1 °F 21.9 °F 45% 30.34 in 10.0 mi North 20.7 mph 31.1 mph N/A   Scattered Clouds
11:53 AM 45.0 °F 36.2 °F 21.0 °F 39% 30.34 in 10.0 mi North 24.2 mph 29.9 mph N/A   Mostly Cloudy
12:53 PM 43.0 °F 33.8 °F 21.0 °F 42% 30.36 in 10.0 mi North 23.0 mph 28.8 mph N/A   Mostly Cloudy
1:53 PM 46.0 °F 38.3 °F 21.9 °F 39% 30.36 in 10.0 mi NNW 20.7 mph 27.6 mph N/A   Overcast
2:53 PM 48.0 °F - 23.0 °F 37% 30.35 in 10.0 mi North 18.4 mph 24.2 mph N/A   Mostly Cloudy
3:53 PM 44.1 °F 35.4 °F 21.0 °F 40% 30.37 in 10.0 mi North 21.9 mph 28.8 mph N/A   Overcast
4:53 PM 43.0 °F 35.1 °F 24.1 °F 47% 30.38 in 10.0 mi North 17.3 mph 28.8 mph N/A   Mostly Cloudy
5:53 PM 42.1 °F 33.9 °F 25.0 °F 51% 30.39 in 10.0 mi NNW 17.3 mph 25.3 mph N/A   Overcast
6:53 PM 42.1 °F 34.2 °F 23.0 °F 47% 30.39 in 10.0 mi NNW 16.1 mph - N/A   Mostly Cloudy
7:53 PM 41.0 °F 34.3 °F 24.1 °F 51% 30.39 in 10.0 mi NW 11.5 mph - N/A   Mostly Cloudy
8:53 PM 33.8 °F 27.0 °F 24.8 °F 70% 30.34 in 10.0 mi WNW 8.1 mph - N/A   Clear
9:53 PM 32.0 °F 24.2 °F 24.1 °F 73% 30.41 in 10.0 mi WNW 9.2 mph - N/A   Clear
10:53 PM 30.0 °F 21.1 °F 23.0 °F 75% 30.42 in - West 10.4 mph - N/A   Unknown
11:53 PM 30.2 °F 20.8 °F 24.8 °F 80% 30.35 in 10.0 mi West 11.5 mph - N/A   Clear